Regional Weather Roundup
Issued by NWS Green Bay, WI

Home | Current Version | Previous Version | Text Only | Print | Product List | Glossary On
Versions: 1 2 3 4 5 6 7 8 9 10 11 12 13 14 15 16 17 18 19 20 21 22 23 24 25 26 27 28 29 30 31 32 33 34 35 36 37 38 39 40 41 42 43 44 45 46 47 48 49 50
000
ASUS43 KGRB 181711
RWRGRB

NORTH-CENTRAL AND NORTHEAST WISCONSIN REGIONAL WEATHER ROUNDUP
NATIONAL WEATHER SERVICE GREEN BAY WI
1200 PM CDT FRI AUG 18 2017

WIZ005-009-010>012-018-019-181800-
NORTH CENTRAL WISCONSIN

CITY           SKY/WX    TMP DP  RH WIND       PRES   REMARKS
IRONWOOD       CLOUDY    64  57  78 NW12      29.85S
MANITOWISH WTR CLOUDY    65  59  82 NW8       29.84S
ARBOR VITAE    CLOUDY    65  57  75 NW10G20   29.83F
EAGLE RIVER    CLOUDY    64  54  69 NW10G16   29.82S
LAND O LAKES   CLOUDY    65  56  71 NW9       29.83S
RHINELANDER    CLOUDY    65  59  81 NW10      29.84S
PHILLIPS       CLOUDY    65  58  76 NW9       29.85F
ANTIGO         CLOUDY    64  58  82 NW10      29.83S
TOMAHAWK         N/A     65  56  72 NW13      29.84S
MERRILL        CLOUDY    66  59  77 NW10      29.84S
$$

WIZ013-073-181800-
NORTHEAST WISCONSIN

CITY           SKY/WX    TMP DP  RH WIND       PRES   REMARKS
IRON MOUNTAIN  CLOUDY    64  54  69 NW9G21    29.77R
MARINETTE      CLOUDY    67  57  70 NW12G20   29.77R
OCONTO         CLOUDY    69  57  65 NW13G18   29.78R
$$

WIZ017-030-035>037-045-181800-
CENTRAL WISCONSIN

CITY           SKY/WX    TMP DP  RH WIND       PRES   REMARKS
MEDFORD        PTSUNNY   66  57  71 NW9       29.86R
WAUSAU         CLOUDY    67  57  70 NW10      29.82F
MOSINEE        CLOUDY    66  59  77 NW12      29.85F
MARSHFIELD     CLOUDY    70  56  61 N12       29.85S
WISC RAPIDS    MOSUNNY   72  60  66 N9        29.86S
STEVENS POINT  CLOUDY    66  57  72 N7        29.85S
WAUPACA        CLOUDY    70  60  69 NW7       29.83S
SHAWANO        CLOUDY    70  59  66 NW8       29.80S
CLINTONVILLE   CLOUDY    68  55  64 NW12      29.81S
WAUTOMA        CLOUDY    71  60  68 W13       29.85R
$$

WIZ038-039-048-051-181800-
FOX VALLEY

CITY           SKY/WX    TMP DP  RH WIND       PRES   REMARKS
NWS GREEN BAY  CLOUDY    71  61  70 W14G20    29.80R
APPLETON       CLOUDY    70  55  60 NW14G20   29.81S
OSHKOSH        CLOUDY    68  59  73 NW13      29.81F
FOND DU LAC    CLOUDY    69  57  65 NW14G21   29.83F
$$

WIZ022-050-052-181800-
EAST CENTRAL WISCONSIN

CITY           SKY/WX    TMP DP  RH WIND       PRES   REMARKS
EPHRAIM        CLOUDY    64  57  77 NW13G18   29.76R
WASHINGTON ISL CLOUDY    64  57  78 NW8G16    29.75R
STURGEON BAY   CLOUDY    67  59  75 NW15      29.78R
MANITOWOC      CLOUDY    70  59  68 NW14      29.79S
SHEBOYGAN      CLOUDY    69  61  75 NW13G18   29.81S
$$

LMZ563-521-522-541>543-181800-
LAKESHORE

STATION/POSITION TIME  TEMP    WIND        PRES    VSBY  WAVE
                       AIR SEA DIR/SP/G                  HT/PER
                 (UTC) (F)     (DEG/KT/KT) (MB)    (MI)  (FT/S)
SHEBOYGAN LKSHOR 1700   69     300/ 17/ 20 1008.7F
KEWAUNEE LKSHORE 1648   69     300/  9/ 14 1007.6R
NORTHPORT PIER   1640   66     310/ 14/ 19 1007.1R
N MID LAKE BUOY  1650   65 67  290/ 19/ 23 1006.7R         4/ 5
S GREEN BAY BUOY 1700   68 71  320/ 14/ 17 1008.3
SISTER BAY LKSHO 1603   67     320/ 20/ 22   N/A
MENOMINEE LKSHOR 1648   67     280/  9/ 15 1007.9R
$$



USA.gov is the U.S. government's official web portal to all federal, state and local government web resources and services.